Time,TemperatureF,DewpointF,PressureIn,WindDirection,WindDirectionDegrees,WindSpeedMPH,WindSpeedGustMPH,Humidity,HourlyPrecipIn,Conditions,Clouds,dailyrainin,SoftwareType,DateUTC
2013-01-12 00:04:00,66.9,61.2,29.94,South,170,0.0,3.0,82,0.00,,,0.00,Weather View 32 v70,2013-01-12 06:04:00,
2013-01-12 00:10:00,66.9,61.2,29.94,ESE,116,0.0,3.0,82,0.00,,,0.00,Weather View 32 v70,2013-01-12 06:10:00,
2013-01-12 00:20:00,67.1,61.4,29.94,SE,143,0.0,3.0,82,0.00,,,0.00,Weather View 32 v70,2013-01-12 06:20:00,
2013-01-12 00:30:00,67.1,61.4,29.94,South,170,0.0,3.0,82,0.00,,,0.00,Weather View 32 v70,2013-01-12 06:30:00,
2013-01-12 00:40:00,67.1,61.4,29.94,SE,133,0.0,3.0,82,0.00,,,0.00,Weather View 32 v70,2013-01-12 06:40:00,
2013-01-12 00:45:00,67.1,61.4,29.94,South,171,0.0,3.0,82,0.00,,,0.00,Weather View 32 v70,2013-01-12 06:45:00,
2013-01-12 00:50:00,67.1,61.4,29.94,South,169,0.0,3.0,82,0.00,,,0.00,Weather View 32 v70,2013-01-12 06:50:00,
2013-01-12 01:00:00,67.1,61.4,29.94,SSE,152,0.0,3.0,82,0.00,,,0.00,Weather View 32 v70,2013-01-12 07:00:00,
2013-01-12 01:05:00,67.1,61.4,29.94,SSE,165,0.0,3.0,82,0.00,,,0.00,Weather View 32 v70,2013-01-12 07:05:00,
2013-01-12 01:10:00,67.1,61.4,29.94,SSE,162,0.0,3.0,82,0.00,,,0.00,Weather View 32 v70,2013-01-12 07:10:00,
2013-01-12 01:15:00,67.1,61.4,29.94,SE,135,0.0,3.0,82,0.00,,,0.00,Weather View 32 v70,2013-01-12 07:15:00,
2013-01-12 01:20:00,67.1,61.4,29.94,SSE,159,0.0,3.0,82,0.00,,,0.00,Weather View 32 v70,2013-01-12 07:20:00,
2013-01-12 01:25:00,67.3,61.6,29.94,SSE,149,0.0,3.0,82,0.00,,,0.00,Weather View 32 v70,2013-01-12 07:25:00,
2013-01-12 01:30:00,67.3,61.6,29.94,SE,142,0.0,2.0,82,0.00,,,0.00,Weather View 32 v70,2013-01-12 07:30:00,
2013-01-12 01:35:00,67.3,61.6,29.94,SE,143,0.0,2.0,82,0.00,,,0.00,Weather View 32 v70,2013-01-12 07:35:00,
2013-01-12 01:40:00,67.3,61.6,29.94,South,184,0.0,2.0,82,0.00,,,0.00,Weather View 32 v70,2013-01-12 07:40:00,
2013-01-12 01:50:00,67.6,61.9,29.94,South,184,0.0,2.0,82,0.00,,,0.00,Weather View 32 v70,2013-01-12 07:50:00,
2013-01-12 01:55:00,67.6,61.6,29.94,SE,142,0.0,2.0,81,0.00,,,0.00,Weather View 32 v70,2013-01-12 07:55:00,
2013-01-12 02:00:00,67.8,61.8,29.94,SSE,152,0.0,2.0,81,0.00,,,0.00,Weather View 32 v70,2013-01-12 08:00:00,
2013-01-12 02:10:00,68.0,61.9,29.94,SSE,157,0.0,2.0,81,0.00,,,0.00,Weather View 32 v70,2013-01-12 08:10:00,
2013-01-12 02:15:00,68.0,61.9,29.94,SSE,148,0.0,2.0,81,0.00,,,0.00,Weather View 32 v70,2013-01-12 08:15:00,
2013-01-12 02:20:00,68.0,61.9,29.94,SE,143,0.0,2.0,81,0.00,,,0.00,Weather View 32 v70,2013-01-12 08:20:00,
2013-01-12 02:29:00,68.2,62.1,29.94,SSE,147,0.0,3.0,81,0.00,,,0.00,Weather View 32 v70,2013-01-12 08:29:00,
2013-01-12 02:35:00,68.2,62.1,29.94,SSE,160,0.0,3.0,81,0.00,,,0.00,Weather View 32 v70,2013-01-12 08:35:00,
2013-01-12 02:40:00,68.2,62.1,29.94,SE,131,0.0,3.0,81,0.00,,,0.00,Weather View 32 v70,2013-01-12 08:40:00,
2013-01-12 02:49:00,68.2,62.1,29.91,SSE,164,0.0,3.0,81,0.00,,,0.00,Weather View 32 v70,2013-01-12 08:49:00,
2013-01-12 02:54:00,68.2,62.1,29.91,SE,143,0.0,3.0,81,0.00,,,0.00,Weather View 32 v70,2013-01-12 08:54:00,
2013-01-12 03:00:00,68.2,62.1,29.91,SSE,148,0.0,3.0,81,0.00,,,0.00,Weather View 32 v70,2013-01-12 09:00:00,
2013-01-12 03:10:00,68.2,62.1,29.91,SSE,153,0.0,3.0,81,0.00,,,0.00,Weather View 32 v70,2013-01-12 09:10:00,
2013-01-12 03:14:00,68.2,62.1,29.91,South,169,0.0,3.0,81,0.00,,,0.00,Weather View 32 v70,2013-01-12 09:14:00,
2013-01-12 03:19:00,68.2,62.1,29.91,SSE,163,0.0,3.0,81,0.00,,,0.00,Weather View 32 v70,2013-01-12 09:19:00,
2013-01-12 03:25:00,68.2,62.1,29.91,SSE,166,0.0,3.0,81,0.00,,,0.00,Weather View 32 v70,2013-01-12 09:25:00,
2013-01-12 03:30:00,68.2,62.1,29.91,SSE,157,0.0,0.0,81,0.00,,,0.00,Weather View 32 v70,2013-01-12 09:30:00,
2013-01-12 03:39:00,68.2,62.1,29.91,SE,141,0.0,0.0,81,0.00,,,0.00,Weather View 32 v70,2013-01-12 09:39:00,
2013-01-12 03:45:00,68.2,62.1,29.91,SSE,157,0.0,0.0,81,0.00,,,0.00,Weather View 32 v70,2013-01-12 09:45:00,
2013-01-12 03:55:00,68.0,61.9,29.91,South,169,0.0,0.0,81,0.00,,,0.00,Weather View 32 v70,2013-01-12 09:55:00,
2013-01-12 04:00:00,68.0,61.9,29.91,South,178,0.0,0.0,81,0.00,,,0.00,Weather View 32 v70,2013-01-12 10:00:00,
2013-01-12 04:05:00,67.8,61.8,29.91,SE,133,0.0,0.0,81,0.00,,,0.00,Weather View 32 v70,2013-01-12 10:05:00,
2013-01-12 04:10:00,67.8,61.8,29.91,SSE,150,0.0,0.0,81,0.00,,,0.00,Weather View 32 v70,2013-01-12 10:10:00,
2013-01-12 04:23:00,67.8,61.8,29.91,SSE,150,0.0,2.0,81,0.00,,,0.00,Weather View 32 v70,2013-01-12 10:23:00,
2013-01-12 04:31:00,67.8,61.8,29.91,SE,133,0.0,2.0,81,0.00,,,0.00,Weather View 32 v70,2013-01-12 10:31:00,
2013-01-12 04:40:00,67.8,61.8,29.91,ESE,115,0.0,2.0,81,0.00,,,0.00,Weather View 32 v70,2013-01-12 10:40:00,
2013-01-12 04:50:00,67.8,61.8,29.88,SSE,166,0.0,2.0,81,0.00,,,0.00,Weather View 32 v70,2013-01-12 10:50:00,
2013-01-12 05:00:00,68.0,61.6,29.88,SSE,167,0.0,2.0,80,0.00,,,0.00,Weather View 32 v70,2013-01-12 11:00:00,
2013-01-12 05:05:00,68.0,61.6,29.91,SSE,149,0.0,2.0,80,0.00,,,0.00,Weather View 32 v70,2013-01-12 11:05:00,
2013-01-12 05:15:00,68.0,61.6,29.91,SE,145,0.0,2.0,80,0.00,,,0.00,Weather View 32 v70,2013-01-12 11:15:00,
2013-01-12 05:25:00,68.2,61.8,29.91,SE,132,0.0,0.0,80,0.00,,,0.00,Weather View 32 v70,2013-01-12 11:25:00,
2013-01-12 05:30:00,68.2,61.8,29.91,SSE,157,0.0,0.0,80,0.00,,,0.00,Weather View 32 v70,2013-01-12 11:30:00,
2013-01-12 05:40:00,68.2,61.8,29.88,SSE,156,0.0,0.0,80,0.00,,,0.00,Weather View 32 v70,2013-01-12 11:40:00,
2013-01-12 05:50:00,68.2,61.8,29.91,SSE,166,0.0,0.0,80,0.00,,,0.00,Weather View 32 v70,2013-01-12 11:50:00,
2013-01-12 05:55:00,68.0,61.6,29.91,SSE,157,0.0,0.0,80,0.00,,,0.00,Weather View 32 v70,2013-01-12 11:55:00,
2013-01-12 06:00:00,68.0,61.6,29.91,South,175,0.0,0.0,80,0.00,,,0.00,Weather View 32 v70,2013-01-12 12:00:00,
2013-01-12 06:10:00,68.2,61.8,29.91,SSE,162,0.0,0.0,80,0.00,,,0.00,Weather View 32 v70,2013-01-12 12:10:00,
2013-01-12 06:15:00,68.2,61.8,29.91,SSE,157,0.0,0.0,80,0.00,,,0.00,Weather View 32 v70,2013-01-12 12:15:00,
2013-01-12 06:20:00,68.2,61.8,29.91,SSE,159,0.0,0.0,80,0.00,,,0.00,Weather View 32 v70,2013-01-12 12:20:00,
2013-01-12 06:30:00,68.2,61.8,29.91,SSE,150,0.0,0.0,80,0.00,,,0.00,Weather View 32 v70,2013-01-12 12:30:00,
2013-01-12 06:39:00,68.2,61.8,29.91,South,177,0.0,0.0,80,0.00,,,0.00,Weather View 32 v70,2013-01-12 12:39:00,
2013-01-12 06:45:00,68.2,61.8,29.91,SE,127,0.0,0.0,80,0.00,,,0.00,Weather View 32 v70,2013-01-12 12:45:00,
2013-01-12 06:50:00,68.4,61.9,29.94,SSE,164,0.0,0.0,80,0.00,,,0.00,Weather View 32 v70,2013-01-12 12:50:00,
2013-01-12 06:59:00,68.4,61.9,29.94,SE,141,0.0,0.0,80,0.00,,,0.00,Weather View 32 v70,2013-01-12 12:59:00,
2013-01-12 07:05:00,68.4,61.9,29.94,SSE,148,0.0,0.0,80,0.00,,,0.00,Weather View 32 v70,2013-01-12 13:05:00,
2013-01-12 07:10:00,68.4,61.9,29.94,South,171,0.0,0.0,80,0.00,,,0.00,Weather View 32 v70,2013-01-12 13:10:00,
2013-01-12 07:16:00,68.5,62.1,29.94,SSE,151,0.0,0.0,80,0.00,,,0.00,Weather View 32 v70,2013-01-12 13:16:00,
2013-01-12 07:25:00,68.7,62.3,29.94,SSE,157,0.0,2.0,80,0.00,,,0.00,Weather View 32 v70,2013-01-12 13:25:00,
2013-01-12 07:35:00,68.9,62.5,29.94,SE,129,0.0,2.0,80,0.00,,,0.00,Weather View 32 v70,2013-01-12 13:35:00,
2013-01-12 07:40:00,69.1,62.6,29.94,SE,140,0.0,2.0,80,0.00,,,0.00,Weather View 32 v70,2013-01-12 13:40:00,
2013-01-12 07:45:00,69.1,62.6,29.94,SSE,154,0.0,2.0,80,0.00,,,0.00,Weather View 32 v70,2013-01-12 13:45:00,
2013-01-12 07:50:00,69.1,62.6,29.94,SSE,166,0.0,2.0,80,0.00,,,0.00,Weather View 32 v70,2013-01-12 13:50:00,
2013-01-12 07:55:00,69.1,62.6,29.94,SSE,149,0.0,2.0,80,0.00,,,0.00,Weather View 32 v70,2013-01-12 13:55:00,
2013-01-12 08:00:00,69.3,62.8,29.94,SSE,156,0.0,2.0,80,0.00,,,0.00,Weather View 32 v70,2013-01-12 14:00:00,
2013-01-12 08:05:00,69.3,62.8,29.94,SSE,154,3.0,3.0,80,0.00,,,0.00,Weather View 32 v70,2013-01-12 14:05:00,
2013-01-12 08:10:00,69.3,62.8,29.94,SE,141,0.0,3.0,80,0.00,,,0.00,Weather View 32 v70,2013-01-12 14:10:00,
2013-01-12 08:17:00,69.4,63.0,29.94,SE,136,0.0,3.0,80,0.00,,,0.00,Weather View 32 v70,2013-01-12 14:17:00,
2013-01-12 08:24:00,69.6,63.2,29.94,South,178,0.0,3.0,80,0.00,,,0.00,Weather View 32 v70,2013-01-12 14:24:00,
2013-01-12 08:30:00,69.8,63.0,29.94,SSE,159,0.0,3.0,79,0.00,,,0.00,Weather View 32 v70,2013-01-12 14:30:00,
2013-01-12 08:40:00,69.8,63.0,29.94,SSE,147,0.0,3.0,79,0.00,,,0.00,Weather View 32 v70,2013-01-12 14:40:00,
2013-01-12 08:45:00,69.8,63.0,29.94,SSE,168,0.0,3.0,79,0.00,,,0.00,Weather View 32 v70,2013-01-12 14:45:00,
2013-01-12 08:55:00,70.2,63.3,29.94,South,183,0.0,3.0,79,0.00,,,0.00,Weather View 32 v70,2013-01-12 14:55:00,
2013-01-12 09:00:00,70.3,63.5,29.94,South,174,0.0,3.0,79,0.00,,,0.00,Weather View 32 v70,2013-01-12 15:00:00,
2013-01-12 09:05:00,70.7,63.8,29.94,South,172,0.0,3.0,79,0.00,,,0.00,Weather View 32 v70,2013-01-12 15:05:00,
2013-01-12 09:10:00,71.1,64.2,29.94,South,182,0.0,3.0,79,0.00,,,0.00,Weather View 32 v70,2013-01-12 15:10:00,
2013-01-12 09:17:00,71.2,64.0,29.94,SSE,159,0.0,3.0,78,0.00,,,0.00,Weather View 32 v70,2013-01-12 15:17:00,
2013-01-12 09:25:00,72.1,64.5,29.97,South,180,0.0,4.0,77,0.00,,,0.00,Weather View 32 v70,2013-01-12 15:25:00,
2013-01-12 09:30:00,72.3,64.3,29.97,South,174,3.0,4.0,76,0.00,,,0.00,Weather View 32 v70,2013-01-12 15:30:00,
2013-01-12 09:40:00,72.9,64.4,29.94,SSE,164,0.0,4.0,75,0.00,,,0.00,Weather View 32 v70,2013-01-12 15:40:00,
2013-01-12 09:50:00,73.6,64.0,29.94,SSE,164,0.0,4.0,72,0.00,,,0.00,Weather View 32 v70,2013-01-12 15:50:00,
2013-01-12 09:55:00,74.1,64.1,29.94,SE,137,2.0,4.0,71,0.00,,,0.00,Weather View 32 v70,2013-01-12 15:55:00,
2013-01-12 10:00:00,74.7,64.6,29.94,SSW,201,0.0,4.0,71,0.00,,,0.00,Weather View 32 v70,2013-01-12 16:00:00,
2013-01-12 10:09:00,74.3,63.0,29.94,South,169,0.0,4.0,68,0.00,,,0.00,Weather View 32 v70,2013-01-12 16:09:00,
2013-01-12 10:15:00,74.3,63.4,29.94,SSE,160,0.0,4.0,69,0.00,,,0.00,Weather View 32 v70,2013-01-12 16:15:00,
2013-01-12 10:25:00,74.7,63.4,29.94,South,183,0.0,4.0,68,0.00,,,0.00,Weather View 32 v70,2013-01-12 16:25:00,
2013-01-12 10:30:00,74.8,63.1,29.94,SSW,204,2.0,4.0,67,0.00,,,0.00,Weather View 32 v70,2013-01-12 16:30:00,
2013-01-12 10:40:00,74.5,62.8,29.91,SW,233,0.0,4.0,67,0.00,,,0.00,Weather View 32 v70,2013-01-12 16:40:00,
2013-01-12 10:45:00,74.3,62.6,29.91,SE,130,2.0,4.0,67,0.00,,,0.00,Weather View 32 v70,2013-01-12 16:45:00,
2013-01-12 10:50:00,74.1,62.8,29.91,South,173,0.0,4.0,68,0.00,,,0.00,Weather View 32 v70,2013-01-12 16:50:00,
2013-01-12 10:55:00,74.1,62.8,29.91,SSW,210,0.0,4.0,68,0.00,,,0.00,Weather View 32 v70,2013-01-12 16:55:00,
2013-01-12 11:05:00,74.1,62.8,29.91,ESE,123,3.0,4.0,68,0.00,,,0.00,Weather View 32 v70,2013-01-12 17:05:00,
2013-01-12 11:15:00,73.9,62.7,29.91,SE,135,3.0,4.0,68,0.00,,,0.00,Weather View 32 v70,2013-01-12 17:15:00,
2013-01-12 11:20:00,73.9,62.7,29.91,South,175,3.0,4.0,68,0.00,,,0.00,Weather View 32 v70,2013-01-12 17:20:00,
2013-01-12 11:25:00,73.9,62.7,29.91,SSW,192,0.0,4.0,68,0.00,,,0.00,Weather View 32 v70,2013-01-12 17:25:00,
2013-01-12 11:30:00,74.1,63.3,29.91,SSE,168,2.0,4.0,69,0.00,,,0.00,Weather View 32 v70,2013-01-12 17:30:00,
2013-01-12 11:35:00,74.1,62.8,29.91,SW,219,4.0,4.0,68,0.00,,,0.00,Weather View 32 v70,2013-01-12 17:35:00,
2013-01-12 11:40:00,74.3,63.0,29.91,SSE,164,3.0,4.0,68,0.00,,,0.00,Weather View 32 v70,2013-01-12 17:40:00,
2013-01-12 11:49:00,74.5,62.8,29.91,SW,216,2.0,4.0,67,0.00,,,0.00,Weather View 32 v70,2013-01-12 17:49:00,
2013-01-12 11:55:00,74.7,62.9,29.91,SSE,161,0.0,4.0,67,0.00,,,0.00,Weather View 32 v70,2013-01-12 17:55:00,
2013-01-12 12:00:00,74.8,63.1,29.91,SW,226,2.0,4.0,67,0.00,,,0.00,Weather View 32 v70,2013-01-12 18:00:00,
2013-01-12 12:09:00,74.5,62.3,29.88,SE,144,3.0,4.0,66,0.00,,,0.00,Weather View 32 v70,2013-01-12 18:09:00,
2013-01-12 12:15:00,74.5,62.3,29.88,SE,128,4.0,5.0,66,0.00,,,0.00,Weather View 32 v70,2013-01-12 18:15:00,
2013-01-12 12:20:00,74.3,62.2,29.88,SSE,164,2.0,5.0,66,0.00,,,0.00,Weather View 32 v70,2013-01-12 18:20:00,
2013-01-12 12:30:00,74.7,62.1,29.88,SSE,147,3.0,5.0,65,0.00,,,0.00,Weather View 32 v70,2013-01-12 18:30:00,
2013-01-12 12:40:00,73.9,61.4,29.88,South,171,4.0,5.0,65,0.00,,,0.00,Weather View 32 v70,2013-01-12 18:40:00,
2013-01-12 12:45:00,73.9,61.8,29.88,SSE,155,3.0,5.0,66,0.00,,,0.00,Weather View 32 v70,2013-01-12 18:45:00,
2013-01-12 12:50:00,74.1,62.4,29.88,South,175,2.0,5.0,67,0.00,,,0.00,Weather View 32 v70,2013-01-12 18:50:00,
2013-01-12 12:59:00,74.3,62.2,29.88,SSW,195,0.0,5.0,66,0.00,,,0.00,Weather View 32 v70,2013-01-12 18:59:00,
2013-01-12 13:05:00,74.3,61.7,29.88,SSW,205,0.0,5.0,65,0.00,,,0.00,Weather View 32 v70,2013-01-12 19:05:00,
2013-01-12 13:10:00,74.3,61.7,29.88,SSE,165,2.0,5.0,65,0.00,,,0.00,Weather View 32 v70,2013-01-12 19:10:00,
2013-01-12 13:20:00,73.9,61.4,29.88,SSE,162,0.0,5.0,65,0.00,,,0.00,Weather View 32 v70,2013-01-12 19:20:00,
2013-01-12 13:30:00,73.8,61.7,29.88,SSE,150,0.0,5.0,66,0.00,,,0.00,Weather View 32 v70,2013-01-12 19:30:00,
2013-01-12 13:40:00,74.1,62.0,29.88,SSE,159,3.0,5.0,66,0.00,,,0.00,Weather View 32 v70,2013-01-12 19:40:00,
2013-01-12 13:50:00,74.1,61.6,29.88,SSW,201,2.0,5.0,65,0.00,,,0.00,Weather View 32 v70,2013-01-12 19:50:00,
2013-01-12 13:55:00,73.9,61.4,29.88,South,182,0.0,5.0,65,0.00,,,0.00,Weather View 32 v70,2013-01-12 19:55:00,
2013-01-12 14:05:00,73.9,61.8,29.88,SSE,156,0.0,5.0,66,0.00,,,0.00,Weather View 32 v70,2013-01-12 20:05:00,
2013-01-12 14:10:00,74.1,62.0,29.88,SSE,150,3.0,5.0,66,0.00,,,0.00,Weather View 32 v70,2013-01-12 20:10:00,
2013-01-12 14:20:00,73.9,61.4,29.85,South,184,0.0,4.0,65,0.00,,,0.00,Weather View 32 v70,2013-01-12 20:20:00,
2013-01-12 14:30:00,73.4,61.3,29.85,SSE,158,2.0,4.0,66,0.00,,,0.00,Weather View 32 v70,2013-01-12 20:30:00,
2013-01-12 14:40:00,73.2,61.6,29.85,South,186,0.0,4.0,67,0.00,,,0.00,Weather View 32 v70,2013-01-12 20:40:00,
2013-01-12 14:45:00,73.0,61.4,29.85,SSE,154,3.0,4.0,67,0.00,,,0.00,Weather View 32 v70,2013-01-12 20:45:00,
2013-01-12 14:50:00,72.9,61.2,29.85,SE,142,0.0,4.0,67,0.00,,,0.00,Weather View 32 v70,2013-01-12 20:50:00,
2013-01-12 14:55:00,72.7,61.1,29.85,SE,126,0.0,4.0,67,0.00,,,0.00,Weather View 32 v70,2013-01-12 20:55:00,
2013-01-12 15:00:00,72.9,61.6,29.85,South,183,3.0,4.0,68,0.00,,,0.00,Weather View 32 v70,2013-01-12 21:00:00,
2013-01-12 15:09:00,73.2,62.0,29.85,SSE,164,2.0,4.0,68,0.00,,,0.00,Weather View 32 v70,2013-01-12 21:09:00,
2013-01-12 15:15:00,73.0,61.8,29.85,SSE,148,3.0,4.0,68,0.00,,,0.00,Weather View 32 v70,2013-01-12 21:15:00,
2013-01-12 15:20:00,72.7,61.5,29.85,SSW,208,2.0,4.0,68,0.00,,,0.00,Weather View 32 v70,2013-01-12 21:20:00,
2013-01-12 15:30:00,72.3,62.0,29.85,SSE,166,2.0,4.0,70,0.00,,,0.00,Weather View 32 v70,2013-01-12 21:30:00,
2013-01-12 15:39:00,72.0,62.0,29.85,SE,133,0.0,4.0,71,0.00,,,0.00,Weather View 32 v70,2013-01-12 21:39:00,
2013-01-12 15:44:00,71.8,62.2,29.85,SSW,192,2.0,4.0,72,0.00,,,0.00,Weather View 32 v70,2013-01-12 21:44:00,
2013-01-12 15:50:00,71.8,62.2,29.85,SSE,152,4.0,4.0,72,0.00,,,0.00,Weather View 32 v70,2013-01-12 21:50:00,
2013-01-12 15:55:00,71.6,62.5,29.85,South,187,0.0,4.0,73,0.00,,,0.00,Weather View 32 v70,2013-01-12 21:55:00,
2013-01-12 16:00:00,71.4,62.7,29.85,SE,144,0.0,4.0,74,0.00,,,0.00,Weather View 32 v70,2013-01-12 22:00:00,
2013-01-12 16:10:00,71.2,62.5,29.85,SE,138,0.0,4.0,74,0.00,,,0.00,Weather View 32 v70,2013-01-12 22:10:00,
2013-01-12 16:15:00,71.2,62.5,29.85,SSE,155,0.0,4.0,74,0.00,,,0.00,Weather View 32 v70,2013-01-12 22:15:00,
2013-01-12 16:20:00,71.1,62.7,29.85,SE,136,2.0,4.0,75,0.00,,,0.00,Weather View 32 v70,2013-01-12 22:20:00,
2013-01-12 16:30:00,70.5,62.2,29.85,SSE,162,3.0,4.0,75,0.00,,,0.00,Weather View 32 v70,2013-01-12 22:30:00,
2013-01-12 16:40:00,70.2,62.2,29.85,South,184,0.0,4.0,76,0.00,,,0.00,Weather View 32 v70,2013-01-12 22:40:00,
2013-01-12 16:45:00,70.2,62.6,29.85,SSE,159,0.0,4.0,77,0.00,,,0.00,Weather View 32 v70,2013-01-12 22:45:00,
2013-01-12 16:55:00,69.8,62.6,29.85,SSE,154,0.0,4.0,78,0.00,,,0.00,Weather View 32 v70,2013-01-12 22:55:00,
2013-01-12 17:05:00,69.4,62.6,29.85,ESE,122,3.0,4.0,79,0.00,,,0.00,Weather View 32 v70,2013-01-12 23:05:00,
2013-01-12 17:10:00,69.3,62.4,29.85,SE,142,3.0,4.0,79,0.00,,,0.00,Weather View 32 v70,2013-01-12 23:10:00,
2013-01-12 17:15:00,69.3,62.4,29.85,SE,139,2.0,4.0,79,0.00,,,0.00,Weather View 32 v70,2013-01-12 23:15:00,
2013-01-12 17:22:00,69.1,62.6,29.85,SSE,151,0.0,4.0,80,0.00,,,0.00,Weather View 32 v70,2013-01-12 23:22:00,
2013-01-12 17:30:00,68.9,62.5,29.85,SE,125,2.0,4.0,80,0.00,,,0.00,Weather View 32 v70,2013-01-12 23:30:00,
2013-01-12 17:35:00,68.9,62.5,29.85,SE,127,2.0,4.0,80,0.00,,,0.00,Weather View 32 v70,2013-01-12 23:35:00,
2013-01-12 17:40:00,68.9,62.5,29.85,SSE,167,0.0,4.0,80,0.00,,,0.00,Weather View 32 v70,2013-01-12 23:40:00,
2013-01-12 17:49:00,68.7,62.3,29.85,SE,126,0.0,4.0,80,0.00,,,0.00,Weather View 32 v70,2013-01-12 23:49:00,
2013-01-12 17:55:00,68.7,62.3,29.85,SSE,159,0.0,4.0,80,0.00,,,0.00,Weather View 32 v70,2013-01-12 23:55:00,
2013-01-12 18:00:00,68.7,62.3,29.85,SSE,154,0.0,4.0,80,0.00,,,0.00,Weather View 32 v70,2013-01-13 00:00:00,
2013-01-12 18:05:00,68.7,62.6,29.85,South,188,0.0,4.0,81,0.00,,,0.00,Weather View 32 v70,2013-01-13 00:05:00,
2013-01-12 18:14:00,68.9,62.8,29.85,SSE,155,0.0,4.0,81,0.00,,,0.00,Weather View 32 v70,2013-01-13 00:14:00,
2013-01-12 18:20:00,68.9,62.8,29.85,South,190,0.0,4.0,81,0.00,,,0.00,Weather View 32 v70,2013-01-13 00:20:00,
2013-01-12 18:25:00,68.9,62.8,29.85,SSE,164,0.0,4.0,81,0.00,,,0.00,Weather View 32 v70,2013-01-13 00:25:00,
2013-01-12 18:30:00,68.9,62.8,29.85,South,171,0.0,4.0,81,0.00,,,0.00,Weather View 32 v70,2013-01-13 00:30:00,
2013-01-12 18:40:00,68.9,62.8,29.85,SE,146,2.0,4.0,81,0.00,,,0.00,Weather View 32 v70,2013-01-13 00:40:00,
2013-01-12 18:45:00,68.9,62.8,29.85,South,169,3.0,3.0,81,0.00,,,0.00,Weather View 32 v70,2013-01-13 00:45:00,
2013-01-12 18:50:00,68.9,62.8,29.85,SE,145,0.0,3.0,81,0.00,,,0.00,Weather View 32 v70,2013-01-13 00:50:00,
2013-01-12 18:55:00,68.7,62.6,29.85,SE,141,2.0,3.0,81,0.00,,,0.00,Weather View 32 v70,2013-01-13 00:55:00,
2013-01-12 19:00:00,68.7,62.6,29.85,South,177,0.0,3.0,81,0.00,,,0.00,Weather View 32 v70,2013-01-13 01:00:00,
2013-01-12 19:09:00,68.5,62.5,29.85,South,181,2.0,3.0,81,0.00,,,0.00,Weather View 32 v70,2013-01-13 01:09:00,
2013-01-12 19:15:00,68.5,62.5,29.85,SSE,158,0.0,3.0,81,0.00,,,0.00,Weather View 32 v70,2013-01-13 01:15:00,
2013-01-12 19:23:00,68.5,62.5,29.85,SSW,205,0.0,3.0,81,0.00,,,0.00,Weather View 32 v70,2013-01-13 01:23:00,
2013-01-12 19:29:00,68.5,62.5,29.85,SE,141,3.0,3.0,81,0.00,,,0.00,Weather View 32 v70,2013-01-13 01:29:00,
2013-01-12 19:35:00,68.5,62.5,29.83,SSE,167,0.0,3.0,81,0.00,,,0.00,Weather View 32 v70,2013-01-13 01:35:00,
2013-01-12 19:40:00,68.5,62.5,29.83,SSE,155,0.0,3.0,81,0.00,,,0.00,Weather View 32 v70,2013-01-13 01:40:00,
2013-01-12 19:45:00,68.5,62.5,29.83,ESE,118,0.0,3.0,81,0.00,,,0.00,Weather View 32 v70,2013-01-13 01:45:00,
2013-01-12 19:50:00,68.5,62.5,29.85,South,171,0.0,3.0,81,0.00,,,0.00,Weather View 32 v70,2013-01-13 01:50:00,
2013-01-12 19:59:00,68.5,62.5,29.85,SSE,157,0.0,4.0,81,0.00,,,0.00,Weather View 32 v70,2013-01-13 01:59:00,
2013-01-12 20:04:00,68.5,62.5,29.83,SSE,154,2.0,4.0,81,0.00,,,0.00,Weather View 32 v70,2013-01-13 02:04:00,
2013-01-12 20:09:00,68.5,62.5,29.83,ENE,64,0.0,4.0,81,0.00,,,0.00,Weather View 32 v70,2013-01-13 02:09:00,
2013-01-12 20:14:00,68.7,62.6,29.83,ESE,118,0.0,4.0,81,0.00,,,0.00,Weather View 32 v70,2013-01-13 02:14:00,
2013-01-12 20:19:00,68.7,62.6,29.83,SSE,162,0.0,4.0,81,0.00,,,0.00,Weather View 32 v70,2013-01-13 02:19:00,
2013-01-12 20:24:00,68.7,62.6,29.83,SSE,156,3.0,4.0,81,0.00,,,0.00,Weather View 32 v70,2013-01-13 02:24:00,
2013-01-12 20:30:00,68.9,62.8,29.83,SSE,155,0.0,4.0,81,0.00,,,0.00,Weather View 32 v70,2013-01-13 02:30:00,
2013-01-12 20:35:00,68.9,62.8,29.83,SSE,150,2.0,4.0,81,0.00,,,0.00,Weather View 32 v70,2013-01-13 02:35:00,
2013-01-12 20:40:00,68.9,62.8,29.83,SE,142,0.0,4.0,81,0.00,,,0.00,Weather View 32 v70,2013-01-13 02:40:00,
2013-01-12 20:45:00,68.9,62.8,29.83,SE,141,3.0,4.0,81,0.00,,,0.00,Weather View 32 v70,2013-01-13 02:45:00,
2013-01-12 20:50:00,68.9,62.8,29.83,SE,145,0.0,4.0,81,0.00,,,0.00,Weather View 32 v70,2013-01-13 02:50:00,
2013-01-12 21:00:00,68.9,62.8,29.83,SSE,154,2.0,4.0,81,0.00,,,0.00,Weather View 32 v70,2013-01-13 03:00:00,
2013-01-12 21:05:00,68.9,62.8,29.83,SE,126,4.0,4.0,81,0.00,,,0.00,Weather View 32 v70,2013-01-13 03:05:00,
2013-01-12 21:15:00,68.9,62.8,29.83,SSE,166,0.0,4.0,81,0.00,,,0.00,Weather View 32 v70,2013-01-13 03:15:00,
2013-01-12 21:24:00,68.9,62.8,29.83,SSE,157,0.0,4.0,81,0.00,,,0.00,Weather View 32 v70,2013-01-13 03:24:00,
2013-01-12 21:30:00,68.9,62.8,29.83,SSE,163,0.0,4.0,81,0.00,,,0.00,Weather View 32 v70,2013-01-13 03:30:00,
2013-01-12 21:39:00,68.7,62.6,29.83,SSE,160,0.0,4.0,81,0.00,,,0.00,Weather View 32 v70,2013-01-13 03:39:00,
2013-01-12 21:45:00,68.7,62.6,29.83,SSE,155,0.0,4.0,81,0.00,,,0.00,Weather View 32 v70,2013-01-13 03:45:00,
2013-01-12 21:50:00,68.7,62.6,29.83,SE,141,0.0,4.0,81,0.00,,,0.00,Weather View 32 v70,2013-01-13 03:50:00,
2013-01-12 21:55:00,68.7,62.6,29.83,SSE,149,0.0,4.0,81,0.00,,,0.00,Weather View 32 v70,2013-01-13 03:55:00,
2013-01-12 22:00:00,68.7,62.6,29.83,SSE,156,0.0,4.0,81,0.00,,,0.00,Weather View 32 v70,2013-01-13 04:00:00,
2013-01-12 22:10:00,68.9,62.8,29.83,SSE,159,0.0,4.0,81,0.00,,,0.00,Weather View 32 v70,2013-01-13 04:10:00,
2013-01-12 22:15:00,68.9,62.8,29.83,SSE,153,0.0,4.0,81,0.00,,,0.00,Weather View 32 v70,2013-01-13 04:15:00,
2013-01-12 22:20:00,68.9,62.8,29.83,SSW,198,2.0,4.0,81,0.00,,,0.00,Weather View 32 v70,2013-01-13 04:20:00,
2013-01-12 22:25:00,69.1,63.0,29.83,SSE,158,0.0,4.0,81,0.00,,,0.00,Weather View 32 v70,2013-01-13 04:25:00,
2013-01-12 22:35:00,69.1,63.0,29.83,SSE,160,2.0,4.0,81,0.00,,,0.00,Weather View 32 v70,2013-01-13 04:35:00,
2013-01-12 22:40:00,69.1,63.0,29.83,SSE,158,0.0,4.0,81,0.00,,,0.00,Weather View 32 v70,2013-01-13 04:40:00,
2013-01-12 22:50:00,69.1,63.0,29.85,SSE,151,0.0,4.0,81,0.00,,,0.00,Weather View 32 v70,2013-01-13 04:50:00,
2013-01-12 22:55:00,69.1,62.6,29.85,South,179,0.0,4.0,80,0.00,,,0.00,Weather View 32 v70,2013-01-13 04:55:00,
2013-01-12 23:05:00,68.9,62.5,29.83,SSE,166,0.0,4.0,80,0.00,,,0.00,Weather View 32 v70,2013-01-13 05:05:00,
2013-01-12 23:09:00,68.9,62.5,29.83,SSE,166,2.0,5.0,80,0.00,,,0.00,Weather View 32 v70,2013-01-13 05:09:00,
2013-01-12 23:15:00,68.9,62.5,29.83,SSE,151,0.0,5.0,80,0.00,,,0.00,Weather View 32 v70,2013-01-13 05:15:00,
2013-01-12 23:20:00,68.9,62.5,29.83,SSW,197,0.0,5.0,80,0.00,,,0.00,Weather View 32 v70,2013-01-13 05:20:00,
2013-01-12 23:25:00,68.9,62.5,29.83,SSE,155,0.0,5.0,80,0.00,,,0.00,Weather View 32 v70,2013-01-13 05:25:00,
2013-01-12 23:30:00,68.9,62.5,29.83,SSW,202,0.0,5.0,80,0.00,,,0.00,Weather View 32 v70,2013-01-13 05:30:00,
2013-01-12 23:35:00,68.9,62.5,29.83,SSE,166,0.0,5.0,80,0.00,,,0.00,Weather View 32 v70,2013-01-13 05:35:00,
2013-01-12 23:44:00,68.9,62.5,29.83,South,181,0.0,5.0,80,0.00,,,0.00,Weather View 32 v70,2013-01-13 05:44:00,
2013-01-12 23:49:00,68.9,62.5,29.83,ESE,118,0.0,5.0,80,0.00,,,0.00,Weather View 32 v70,2013-01-13 05:49:00,
2013-01-12 23:55:00,68.9,62.5,29.83,South,172,0.0,5.0,80,0.00,,,0.00,Weather View 32 v70,2013-01-13 05:55:00,